Location: ????????
(55.7667°N, 37.4833°E)
Time: 14:33:03
(UTC+00:00)

Cosmos 2333 Rocket - Pass Details

Date: 19 May 2025
Orbit: 840 x 862 km, 70.8° (Epoch: 19 June)

Event Time Altitude Azimuth Distance (km) Brightness Sun altitude
Rises 22:05:23 0° 321° (NW) 3,442 6.0 -13.8°
Reaches altitude 10° 22:08:10 10° 310° (NW) 2,497 5.1 -13.7°
Maximum altitude 22:12:53 27° 255° (WSW) 1,580 3.4 -13.6°
Enters shadow 22:15:54 18° 212° (SSW) 1,996 3.6 -13.5°
